Regional Weather Roundup
Issued by NWS

Home | Current Version | Previous Version | Text Only | Print | Product List | Glossary Off
Versions: 1 2 3 4 5 6 7 8 9 10 11 12 13 14 15 16 17 18 19 20 21 22 23 24 25 26 27

000
ASUS45 KTFX 191310
RWRMT
MONTANA REGIONAL WEATHER ROUNDUP
NATIONAL WEATHER SERVICE GREAT FALLS MT
600 AM MST SUN FEB 19 2017

NOTE: "FAIR" INDICATES FEW OR NO CLOUDS BELOW 12000 FEET WITH NO
SIGNIFICANT WEATHER AND/OR OBSTRUCTIONS TO VISIBILITY.

MTZ001>007-043-191400-
WEST OF THE DIVIDE

CITY           SKY/WX    TMP DP  RH WIND       PRES   REMARKS
KALISPELL      CLOUDY    34  33  96 W5        29.45R
MISSOULA       MOCLDY    34  32  92 NW5       29.47S
BUTTE          LGT RAIN  37  31  78 SW10      29.45R WCI  30
MULLAN PASS    CLOUDY    25  25 100 S6        29.41S WCI  18
DEER LODGE       N/A     37  34  87 SW5       29.47R
EUREKA           N/A     32  30  93 CALM      29.45R
HAMILTON         N/A     37  34  87 CALM      29.46S
LIBBY            N/A     32  32 100 CALM      29.46R VSB 1/2
RONAN            N/A     32  30  92 CALM      29.55R
$$

MTZ008-052>055-191400-
SOUTHWEST MONTANA

CITY           SKY/WX    TMP DP  RH WIND       PRES   REMARKS
BOZEMAN        CLOUDY    37  32  82 NE6       29.44S
DILLON         CLOUDY    33  30  88 SE7       29.44R WCI  27
W YELLOWSTONE  LGT SNOW  32  32 100 SW12G18   29.54R WCI  23
ENNIS          CLOUDY    39  30  70 S13       29.51R WCI  32
THREE FORKS      N/A     42  -3  15 CALM      29.49R
$$

MTZ009-010-012-014-046-048-049-054-191400-
EAST SLOPES AND CENTRAL MONTANA

CITY           SKY/WX    TMP DP  RH WIND       PRES   REMARKS
CUT BANK       CLOUDY    32  30  92 W3        29.34S
GREAT FALLS    CLOUDY    43  30  60 S13       29.35S
MALMSTROM AFB  MOCLDY    46  33  61 S16       29.36R
HELENA         CLOUDY    39  33  79 NW3       29.43R
AUGUSTA        MOCLDY    35  32  86 NE8       29.35R WCI  29
BOWMANS CRNR   MOCLDY    39  33  78 S17       29.34R WCI  30
CHOTEAU          N/A     41  34  75 S9        29.36S
POWER          MOCLDY    40  30  66 S10       29.34R
RAYNESFORD     MOCLDY    40  30  66 CALM      29.38R
ULM            MOCLDY    45  34  66 MISG      29.36S
$$

MTZ011-013-016-021-045-047-050-051-191400-
NORTH CENTRAL MONTANA

CITY           SKY/WX    TMP DP  RH WIND       PRES   REMARKS
HAVRE          CLOUDY    30  29  96 E8        29.36R WCI  22
LEWISTOWN      CLOUDY    40  28  62 W9        29.39R
N BAR RANCH    MOCLDY    39  28  65 SW8       29.44S
CHINOOK          N/A     32  30  93 E14G20    29.38R WCI  22
DENTON         CLOUDY    41  30  66 SW12      29.34R
FORT BENTON      N/A    N/A N/A N/A MISG      29.37R
GEYSER         MOCLDY    41  29  61 W7        29.37R
GRASS RANGE    MOCLDY    36  29  74 N5        29.36R
JUDITH GAP       N/A     32  28  84 S14       29.40S WCI  22
ROY            MOCLDY    37  32  81 MISG      29.36S
STANFORD         N/A     40  29  65 SW3       29.39R
WINIFRED       CLOUDY    33  30  88 E8        29.37R WCI  26
$$

MTZ017>020-022>027-061-062-191400-
NORTHEAST MONTANA

CITY           SKY/WX    TMP DP  RH WIND       PRES   REMARKS
GLASGOW        CLOUDY    32  29  88 SE12      29.46F WCI  23
JORDAN           N/A     32  29  88 E9        29.42F WCI  24
SIDNEY         CLOUDY    31  30  96 E5        29.55F FOG
WOLF POINT     CLOUDY    32  29  88 E15       29.52S WCI  22
PLENTYWOOD       N/A     30  27  86 E12       29.57S WCI  21
POPLAR           N/A     30  28  93 NE12      29.54S WCI  21
$$

MTZ028>42-056>058-191400-
SOUTHCENTRAL AND SOUTHEAST MONTANA

CITY           SKY/WX    TMP DP  RH WIND       PRES   REMARKS
BAKER          CLOUDY    32  29  88 SE9       29.50S WCI  24
BILLINGS       CLOUDY    39  32  76 CALM      29.42F
LIVINGSTON     CLOUDY    43  33  68 SW17      29.41F
MILES CITY     CLOUDY    31  28  89 NE7       29.46S WCI  24
BIG TIMBER     CLEAR     32  28  86 CALM      29.45R
FORSYTH          N/A     32  32 100 CALM      29.45R
HARLOWTON      MOCLDY    31  28  88 W12       29.42S WCI  22
LAUREL           N/A     34  20  57 W3        29.46F
$$

REGIONAL REPORTS...DAKOTAS

CITY           SKY/WX    TMP DP  RH WIND       PRES   REMARKS
WILLISTON      CLOUDY    32  30  92 E8        29.57S WCI  25
MINOT          CLOUDY    34  31  88 E8        29.64S WCI  27
DICKINSON      FOG       29  28  96 E8        29.51F VSB 1/4 WCI  21
BEACH            N/A    N/A N/A N/A MISG        N/A
CROSBY           N/A     28  28 100 E13       29.63S WCI  18
TIOGA          CLOUDY    28  28 100 E17       29.60S WCI  16
WATFORD CITY   CLOUDY    32  32 100 E8        29.57R WCI  25
BISMARCK       CLOUDY    35  32  88 NE8       29.61S WCI  29
GRAND FORKS    MOCLDY    36  29  75 E9        29.79S WCI  29
FARGO          CLOUDY    42  37  82 SE16      29.77S
BUFFALO SD       N/A     38  32  79 S9        29.45S WCI  31
RAPID CITY     PTCLDY    38  29  70 E5        29.56R
$$

REGIONAL REPORTS...WYOMING/IDAHO/WASHINGTON

CITY           SKY/WX    TMP DP  RH WIND       PRES   REMARKS
GILLETTE       CLOUDY    44  32  62 S23       29.50F
SHERIDAN       CLOUDY    31  27  85 S8        29.47F WCI  23
BUFFALO WY     CLOUDY    45  25  45 SW8       29.49R
CODY           CLOUDY    34  26  72 CALM      29.49S
YELLOWSTONE LA   N/A     30  30 100 CALM      29.56S
IDAHO FALLS    CLOUDY    33  33 100 S14       29.60R WCI  23
SALMON         CLOUDY    36  34  93 S3        29.47S
BOISE          CLOUDY    42  37  82 CALM      29.55R
SPOKANE        FOG       33  32  96 E5        29.46S VSB 1/2
$$

REGIONAL REPORTS...ALBERTA

CITY           SKY/WX    TMP DP  RH WIND       PRES   REMARKS
EDMONTON       MIX PCPN  32  32 100 E6        29.37S WCI  26
CALGARY        CLOUDY    28  27  93 W5        29.31R FOG
LETHBRIDGE     MOCLDY    30  30 100 SW3       29.32R
MEDICINE HAT   PTCLDY    32  28  86 VRB2      29.34R
WATERTON GATE    N/A     34  30  86 SW7         N/A  WCI  28
CARDSTON         N/A     34  30  86 S5          N/A
MILK RIVER       N/A     32  30  93 SW2         N/A
$$

REGIONAL REPORTS...SASKATCHEWAN

CITY           SKY/WX    TMP DP  RH WIND       PRES   REMARKS
SWIFT CURRENT  CLOUDY    32  30  93 E18       29.42F WCI  20
REGINA         CLOUDY    32  27  80 E18       29.62S WCI  20
SASKATOON      CLOUDY    34  28  80 SE16G22   29.62F WCI  23
CYPRESS HILLS    N/A     28  27  93 SE9         N/A  WCI  20
VAL MARIE        N/A     34  30  86 E8          N/A  WCI  27
ROCKGLEN         N/A     30  28  93 E9          N/A  WCI  22
ASSINIBOIA       N/A     34  32  93 SE13        N/A  WCI  25
$$




USA.gov is the U.S. government's official web portal to all federal, state and local government web resources and services.